Tracking 20623 objects as of 3-Apr-2020
HD Live streaming from Space Station
objects crossing your sky now

GORIZONT 6

Track GORIZONT 6 now!
GORIZONT 6 is classified as:


NORAD ID: 13624
Int'l Code: 1982-103A
Perigee: 35,769.8 km
Apogee: 35,787.7 km
Inclination: 12.1 °
Period: 1,435.3 minutes
Semi major axis: 42149 km
RCS: 3.1622 m2 (large)
Launch date: October 20, 1982
Source: Commonwealth of Independent States (former USSR) (CIS)
Launch site: TYURATAM MISSILE AND SPACE COMPLEX (TTMTR)
aabbcc
Your satellite tracking list
Your tracking list is empty




NASA's NSSDC Master Catalog

Two Line Element Set (TLE):
1 13624U 82103A   20094.16619021 -.00000287  00000-0  00000+0 0  9998
2 13624  12.0554 322.6356 0002122  26.6943 216.1444  1.00325363 98214
Source of the keplerian elements: AFSPC